GW4913 Weather Reports


Display with metric or nautical units.
time (UTC)temp
F
wind
direction
speed
MPH
gust
MPH
rain 1hr
in
rain 24hr
in
rain mn
in
humidity
%
barometer
mb
20260507203519 77 90 2.0 5.0 0.00 0.00 0.00 79 1019.2
20260507202519 77 90 1.0 5.0 0.00 0.00 0.00 79 1019.5
20260507201539 78 90 1.0 5.0 0.00 0.00 0.00 78 1019.5
20260507200519 78 90 2.0 6.0 0.00 0.00 0.00 77 1019.5
20260507195519 78 0.0 3.0 0.00 0.00 0.00 77 1019.4
20260507194519 78 135 1.0 5.0 0.00 0.00 0.00 76 1019.5
20260507193539 78 113 1.0 7.0 0.00 0.00 0.00 76 1019.6
20260507192519 79 135 2.0 8.0 0.00 0.00 0.00 75 1019.5
20260507191519 79 90 2.0 9.0 0.00 0.00 0.00 74 1019.7
20260507190519 79 135 1.0 6.0 0.00 0.00 0.00 72 1019.8
20260507185519 80 113 2.0 5.0 0.00 0.00 0.00 71 1020.0
20260507184539 80 180 1.0 4.0 0.00 0.00 0.00 70 1020.2
20260507183539 80 135 3.0 7.0 0.00 0.00 0.00 69 1020.4
20260507182559 80 135 1.0 6.0 0.00 0.00 0.00 69 1020.4
20260507181519 81 0.0 3.0 0.00 0.00 0.00 68 1020.2
20260507180539 81 0.0 2.0 0.00 0.00 0.00 68 1020.4
20260507175519 81 113 1.0 6.0 0.00 0.00 0.00 67 1020.2
20260507174519 81 90 1.0 4.0 0.00 0.00 0.00 66 1020.1
20260507173519 81 90 2.0 10.0 0.00 0.00 0.00 65 1019.6
20260507172519 82 135 1.0 7.0 0.00 0.00 0.00 65 1019.5
20260507171519 82 90 1.0 6.0 0.00 0.00 0.00 65 1019.7
20260507170519 82 0.0 1.0 0.00 0.00 0.00 65 1019.6
20260507165519 82 135 2.0 6.0 0.00 0.00 0.00 65 1019.8
20260507164519 82 113 1.0 4.0 0.00 0.00 0.00 65 1020.0
20260507163559 83 90 2.0 7.0 0.00 0.00 0.00 64 1019.8
20260507162519 83 90 1.0 9.0 0.00 0.00 0.00 64 1020.0
20260507161528 83 90 1.0 5.0 0.00 0.00 0.00 63 1019.9
20260507160539 83 0.0 1.0 0.00 0.00 0.00 62 1019.7
20260507155519 83 0.0 3.0 0.00 0.00 0.00 62 1019.5
20260507154519 84 90 1.0 6.0 0.00 0.00 0.00 61 1019.5
20260507153519 84 90 1.0 7.0 0.00 0.00 0.00 60 1019.3
20260507152519 84 0.0 1.0 0.00 0.00 0.00 59 1018.8
20260507151519 84 113 2.0 8.0 0.00 0.00 0.00 58 1018.4
20260507150519 84 45 1.0 5.0 0.00 0.00 0.00 57 1018.2
20260507145519 85 90 2.0 6.0 0.00 0.00 0.00 55 1018.0
20260507144519 85 113 2.0 6.0 0.00 0.00 0.00 54 1017.7
20260507143539 85 113 1.0 3.0 0.00 0.00 0.00 53 1017.5
20260507142519 85 45 1.0 4.0 0.00 0.00 0.00 52 1017.2
20260507141519 85 0.0 3.0 0.00 0.00 0.00 51 1017.0
20260507140519 85 113 1.0 5.0 0.00 0.00 0.00 51 1016.8
20260507135519 85 0.0 1.0 0.00 0.00 0.00 51 1016.5
20260507134519 86 135 1.0 5.0 0.00 0.00 0.00 51 1016.4
20260507133519 86 90 1.0 4.0 0.00 0.00 0.00 51 1016.4
20260507132519 86 68 2.0 7.0 0.00 0.00 0.00 52 1016.2
20260507131539 86 0.0 1.0 0.00 0.00 0.00 52 1016.0
20260507130539 87 113 1.0 3.0 0.00 0.00 0.00 51 1016.1
20260507125519 87 0.0 3.0 0.00 0.00 0.00 50 1015.8
20260507124519 87 113 1.0 4.0 0.00 0.00 0.00 49 1015.9
20260507123519 88 0.0 3.0 0.00 0.00 0.00 49 1016.1
20260507122539 89 0.0 3.0 0.00 0.00 0.00 49 1016.0
20260507121539 89 0.0 2.0 0.00 0.00 0.00 48 1015.8
20260507120539 89 0.0 3.0 0.00 0.00 0.00 48 1015.9
20260507115519 90 0.0 1.0 0.00 0.00 0.00 48 1016.1
20260507114552 90 45 1.0 5.0 0.00 0.00 0.00 47 1016.0
20260507113518 90 45 1.0 5.0 0.00 0.00 0.00 47 1016.2
20260507113018 91 180 1.0 4.0 0.00 0.00 0.00 46 1016.3
20260507112030 91 0.0 2.0 0.00 0.00 0.00 46 1016.2
20260507111519 91 0.0 1.0 0.00 0.00 0.00 46 1016.1
20260507110524 91 0.0 3.0 0.00 0.00 0.00 46 1016.2
20260507105518 91 0.0 2.0 0.00 0.00 0.00 45 1016.1
20260507104522 91 45 2.0 8.0 0.00 0.00 0.00 45 1016.2
20260507103518 91 0.0 4.0 0.00 0.00 0.00 45 1016.2
20260507102518 90 45 1.0 5.0 0.00 0.00 0.00 46 1016.4
20260507102031 90 90 2.0 8.0 0.00 0.00 0.00 46 1016.5
20260507101601 90 0.0 5.0 0.00 0.00 0.00 48 1016.6
20260507100518 90 90 1.0 5.0 0.00 0.00 0.00 48 1016.7
20260507095518 91 90 1.0 5.0 0.00 0.00 0.00 48 1017.0
20260507094518 91 0.0 3.0 0.00 0.00 0.00 48 1016.9
20260507093518 91 315 1.0 4.0 0.00 0.00 0.00 47 1017.1
20260507092519 92 45 2.0 7.0 0.00 0.00 0.00 46 1017.2
20260507091518 91 0.0 1.0 0.00 0.00 0.00 48 1017.3
20260507090518 91 0.0 3.0 0.00 0.00 0.00 48 1017.5
20260507085518 93 0.0 2.0 0.00 0.00 0.00 47 1017.8
20260507084519 91 135 1.0 3.0 0.00 0.00 0.00 50 1017.6
20260507083518 90 135 1.0 4.0 0.00 0.00 0.00 51 1017.5
20260507082518 89 315 1.0 4.0 0.00 0.00 0.00 52 1017.7
20260507081518 91 0.0 1.0 0.00 0.00 0.00 49 1018.0
20260507080518 91 0.0 2.0 0.00 0.00 0.00 48 1018.1
20260507075518 91 158 1.0 4.0 0.00 0.00 0.00 50 1018.5
20260507074518 90 0.0 1.0 0.00 0.00 0.00 52 1018.7
20260507073518 87 23 1.0 6.0 0.00 0.00 0.00 54 1018.5
20260507072518 86 0.0 1.0 0.00 0.00 0.00 57 1018.9
20260507071518 87 293 1.0 5.0 0.00 0.00 0.00 58 1019.2
20260507070518 87 293 1.0 6.0 0.00 0.00 0.00 57 1019.3
20260507065518 87 135 1.0 5.0 0.00 0.00 0.00 57 1019.6
20260507064518 86 315 1.0 4.0 0.00 0.00 0.00 58 1019.5
20260507063518 87 338 1.0 4.0 0.00 0.00 0.00 57 1019.8
20260507062518 87 0.0 2.0 0.00 0.00 0.00 58 1020.0
20260507061518 87 135 1.0 7.0 0.00 0.00 0.00 59 1019.9
20260507060518 86 158 1.0 6.0 0.00 0.00 0.00 59 1020.0
20260507055518 87 293 1.0 6.0 0.00 0.00 0.00 58 1020.4
20260507054518 88 180 1.0 3.0 0.00 0.00 0.00 57 1020.7
20260507053538 89 0.0 1.0 0.00 0.00 0.00 58 1021.0
20260507052540 88 113 1.0 4.0 0.00 0.00 0.00 59 1020.9
20260507051518 86 180 1.0 6.0 0.00 0.00 0.00 60 1020.9
20260507050721 84 158 2.0 7.0 0.00 0.00 0.00 63 1020.8
20260507045520 86 180 1.0 4.0 0.00 0.00 0.00 62 1021.0
20260507044520 85 135 1.0 7.0 0.00 0.00 0.00 62 1021.0
20260507043540 83 135 1.0 5.0 0.00 0.00 0.00 65 1020.8
20260507042520 82 180 1.0 6.0 0.00 0.00 0.00 68 1020.7
20260507041520 83 0.0 4.0 0.00 0.00 0.00 67 1021.0
20260507040540 81 113 1.0 5.0 0.00 0.00 0.00 69 1020.8
20260507035520 81 180 1.0 4.0 0.00 0.00 0.00 70 1020.6
20260507034520 81 135 4.0 9.0 0.00 0.00 0.00 69 1020.7
20260507033520 81 0.0 7.0 0.00 0.00 0.00 71 1020.6
20260507032520 79 135 2.0 7.0 0.00 0.00 0.00 73 1020.3
20260507031520 78 135 1.0 5.0 0.00 0.00 0.00 74 1020.3
20260507030520 77 113 1.0 4.0 0.00 0.00 0.00 77 1020.0
20260507025520 77 180 2.0 7.0 0.00 0.00 0.00 77 1020.1
20260507024520 78 135 2.0 8.0 0.00 0.00 0.00 76 1020.2
20260507023519 77 135 2.0 7.0 0.00 0.00 0.00 78 1020.0
20260507022519 77 135 3.0 8.0 0.00 0.00 0.00 77 1019.8
20260507021540 77 135 1.0 6.0 0.00 0.00 0.00 78 1019.7
20260507020520 76 135 1.0 4.0 0.00 0.00 0.00 79 1019.5
20260507015519 76 135 1.0 4.0 0.00 0.00 0.00 80 1019.4
20260507014519 75 0.0 4.0 0.00 0.00 0.00 81 1019.1
20260507013519 75 203 1.0 7.0 0.00 0.00 0.00 83 1019.1
20260507012519 74 0.0 3.0 0.00 0.00 0.00 83 1019.1
20260507011539 74 0.0 2.0 0.00 0.00 0.00 85 1019.1
20260507010519 73 135 1.0 3.0 0.00 0.00 0.00 85 1019.0
20260507005539 73 135 2.0 5.0 0.00 0.00 0.00 84 1019.1
20260507004519 74 0.0 2.0 0.00 0.00 0.00 83 1019.0
20260507003519 74 0.0 1.0 0.00 0.00 0.00 83 1019.0
20260507002519 74 0.0 2.0 0.00 0.00 0.00 83 1018.8
20260507001519 74 0.0 0.0 0.00 0.00 0.00 83 1018.7
20260507000519 74 0.0 4.0 0.00 0.00 0.00 83 1018.3
20260506235519 74 0.0 2.0 0.00 0.00 0.00 83 1018.3
20260506234519 74 135 1.0 4.0 0.00 0.00 0.00 83 1018.3
20260506233519 74 203 2.0 6.0 0.00 0.00 0.00 83 1018.1
20260506232539 74 0.0 2.0 0.00 0.00 0.00 83 1018.1
20260506231519 74 135 1.0 5.0 0.00 0.00 0.00 83 1018.0
20260506230519 74 0.0 3.0 0.00 0.00 0.00 83 1018.0
20260506225519 74 135 1.0 7.0 0.00 0.00 0.00 83 1017.7
20260506224520 74 113 1.0 5.0 0.00 0.00 0.00 83 1017.5
20260506223559 74 135 1.0 8.0 0.00 0.00 0.00 83 1017.5
20260506222519 74 0.0 1.0 0.00 0.00 0.00 83 1017.2
20260506221519 74 135 2.0 8.0 0.00 0.00 0.00 83 1017.1
20260506220519 74 135 2.0 6.0 0.00 0.00 0.00 82 1017.1
20260506215519 75 135 3.0 10.0 0.00 0.00 0.00 82 1017.4
20260506214519 75 135 2.0 8.0 0.00 0.00 0.00 82 1017.1
20260506213539 75 90 1.0 6.0 0.00 0.00 0.00 82 1017.3
20260506212519 75 180 3.0 7.0 0.00 0.00 0.00 81 1017.6
20260506211519 75 203 2.0 8.0 0.00 0.00 0.00 81 1017.7
20260506210519 75 135 2.0 7.0 0.00 0.00 0.00 81 1017.7
20260506205519 76 0.0 4.0 0.00 0.00 0.00 80 1018.0
20260506204519 76 0.0 4.0 0.00 0.00 0.00 80 1018.2